Change the Weather History Date:

Saturday, October 15, 2011

  Actual Average (KTOL) Record (KTOL)
Temperature  
Mean Temperature 52 °F 52 °F  
Max Temperature 59 °F 63 °F 87 °F (1897)
Min Temperature 46 °F 42 °F 25 °F (1876)
Degree Days  
Heating Degree Days 12 13  
Month to date heating degree days 159  
Since 1 July heating degree days 283  
Cooling Degree Days 0 0  
Month to date cooling degree days 8  
Year to date cooling degree days 792  
Growing Degree Days 2 (Base 50)    
Moisture  
Dew Point 37 °F    
Average Humidity 58    
Maximum Humidity 82    
Minimum Humidity 36    
Precipitation  
Precipitation 0.00 in 0.08 in 1.02 in (2004)
Month to date precipitation 1.29  
Year to date precipitation 27.39  
Snow  
Snow 0.00 in 0.00 in - ()
Month to date snowfall 0.0  
Since 1 July snowfall 0.0  
Since 1 September snowfall 0.0  
Snow Depth -    
Sea Level Pressure  
Sea Level Pressure 29.64 in    
Wind  
Wind Speed 14 mph (West)    
Max Wind Speed 26 mph    
Max Gust Speed 40 mph    
Visibility 10 miles    
Events      
T = Trace of Precipitation, MM = Missing Value Source: NWS Daily Summary

Daily Weather History Graph

Daily Weather History Graph

Search for Another Location

Airport or City:

Trip Planner

Search our weather history database for the weather conditions in past years. The results will help you decide how hot, cold, wet, or windy it might be!

Date:

Astronomy

Oct. 15, 2011 Rise Set
Actual Time 7:46 AM EDT 6:53 PM EDT
Civil Twilight 7:18 AM EDT 7:21 PM EDT
Nautical Twilight 6:46 AM EDT 7:53 PM EDT
Astronomical Twilight 6:14 AM EDT 8:26 PM EDT
Moon 8:46 PM EDT (10/15) 11:13 AM EDT (10/15)
Length of Visible Light 12h 03m
Length of Day
11h 07m
Waning Gibbous, 89% of the Moon is Illuminated
Oct 15
Waning Gibbous
Oct 19
Last Quarter
Oct 26
New
Nov 2
First Quarter
Nov 10
Full

Hourly Weather History & Observations

Time (EDT) Temp. Windchill Dew Point Humidity Pressure Visibility Wind Dir Wind Speed Gust Speed Precip Events Conditions
12:15 AM 48.2 °F - 42.8 °F 82% 29.58 in 10.0 mi WSW 8.1 mph - N/A   Clear
12:35 AM 48.2 °F - 41.0 °F 76% 29.58 in 10.0 mi WSW 9.2 mph 17.3 mph N/A   Clear
12:55 AM 46.4 °F 41.9 °F 41.0 °F 81% 29.58 in 10.0 mi WSW 9.2 mph - N/A   Clear
1:15 AM 46.4 °F 41.9 °F 41.0 °F 81% 29.58 in 10.0 mi WSW 9.2 mph - N/A   Clear
1:35 AM 46.4 °F 42.9 °F 41.0 °F 81% 29.58 in 10.0 mi WSW 6.9 mph - N/A   Clear
2:15 AM 46.4 °F 42.4 °F 41.0 °F 81% 29.58 in 10.0 mi SW 8.1 mph - N/A   Mostly Cloudy
2:35 AM 48.2 °F - 41.0 °F 76% 29.58 in 10.0 mi SW 10.4 mph - N/A   Overcast
2:55 AM 48.2 °F - 41.0 °F 76% 29.57 in 10.0 mi SW 10.4 mph 16.1 mph N/A   Scattered Clouds
3:15 AM 50.0 °F - 41.0 °F 71% 29.57 in 10.0 mi WSW 10.4 mph 20.7 mph N/A   Clear
3:35 AM 50.0 °F - 41.0 °F 71% 29.57 in 10.0 mi WSW 12.7 mph 18.4 mph N/A   Clear
3:55 AM 50.0 °F - 41.0 °F 71% 29.57 in 10.0 mi WSW 8.1 mph 16.1 mph N/A   Mostly Cloudy
4:15 AM 50.0 °F - 41.0 °F 71% 29.57 in 10.0 mi WSW 17.3 mph 23.0 mph N/A   Overcast
4:35 AM 50.0 °F - 41.0 °F 71% 29.58 in 10.0 mi West 16.1 mph 25.3 mph N/A   Light Drizzle
4:55 AM 50.0 °F - 41.0 °F 71% 29.58 in 10.0 mi West 9.2 mph 18.4 mph N/A   Overcast
5:15 AM 50.0 °F - 41.0 °F 71% 29.57 in 10.0 mi WSW 9.2 mph - N/A   Mostly Cloudy
5:35 AM 50.0 °F - 41.0 °F 71% 29.57 in 10.0 mi WSW 12.7 mph 18.4 mph N/A   Scattered Clouds
5:55 AM 50.0 °F - 41.0 °F 71% 29.57 in 10.0 mi WSW 12.7 mph 17.3 mph N/A   Overcast
6:15 AM 50.0 °F - 41.0 °F 71% 29.57 in 10.0 mi WSW 10.4 mph 23.0 mph N/A   Overcast
6:35 AM 50.0 °F - 41.0 °F 71% 29.57 in 10.0 mi WSW 16.1 mph 23.0 mph N/A   Overcast
6:55 AM 50.0 °F - 41.0 °F 71% 29.58 in 10.0 mi WSW 15.0 mph 26.5 mph N/A   Overcast
7:15 AM 50.0 °F - 41.0 °F 71% 29.58 in 10.0 mi WSW 12.7 mph 25.3 mph N/A   Overcast
7:35 AM 50.0 °F - 41.0 °F 71% 29.58 in 10.0 mi WSW 13.8 mph 21.9 mph N/A   Overcast
7:55 AM 50.0 °F - 41.0 °F 71% 29.58 in 10.0 mi WSW 12.7 mph 23.0 mph N/A   Overcast
8:15 AM 50.0 °F - 41.0 °F 71% 29.59 in 10.0 mi WSW 16.1 mph 21.9 mph N/A   Overcast
8:35 AM 50.0 °F - 41.0 °F 71% 29.60 in 10.0 mi WSW 15.0 mph 25.3 mph N/A   Overcast
9:15 AM 50.0 °F - 41.0 °F 71% 29.61 in 10.0 mi WSW 10.4 mph 23.0 mph N/A   Overcast
9:35 AM 50.0 °F - 41.0 °F 71% 29.61 in 10.0 mi WSW 10.4 mph 20.7 mph N/A   Overcast
9:55 AM 51.8 °F - 41.0 °F 67% 29.62 in 10.0 mi West 15.0 mph 24.2 mph N/A   Overcast
10:15 AM 51.8 °F - 37.4 °F 58% 29.63 in 10.0 mi West 17.3 mph 25.3 mph N/A   Overcast
10:35 AM 51.8 °F - 35.6 °F 54% 29.63 in 10.0 mi West 23.0 mph 31.1 mph N/A   Overcast
10:55 AM 51.8 °F - 35.6 °F 54% 29.64 in 10.0 mi West 16.1 mph 27.6 mph N/A   Overcast
11:15 AM 53.6 °F - 35.6 °F 51% 29.65 in 10.0 mi West 19.6 mph 33.4 mph N/A   Overcast
11:35 AM 53.6 °F - 35.6 °F 51% 29.65 in 10.0 mi West 18.4 mph 32.2 mph N/A   Overcast
11:55 AM 53.6 °F - 35.6 °F 51% 29.65 in 10.0 mi West 26.5 mph 38.0 mph N/A   Mostly Cloudy
12:15 PM 53.6 °F - 33.8 °F 47% 29.66 in 10.0 mi West 23.0 mph 36.8 mph N/A   Mostly Cloudy
12:35 PM 55.4 °F - 33.8 °F 44% 29.67 in 10.0 mi West 21.9 mph 36.8 mph N/A   Mostly Cloudy
12:55 PM 53.6 °F - 33.8 °F 47% 29.68 in 10.0 mi West 18.4 mph 38.0 mph N/A   Mostly Cloudy
1:15 PM 57.2 °F - 35.6 °F 44% 29.68 in 10.0 mi West 21.9 mph 29.9 mph N/A   Overcast
1:35 PM 55.4 °F - 33.8 °F 44% 29.68 in 10.0 mi West 24.2 mph 33.4 mph N/A   Overcast
1:55 PM 57.2 °F - 33.8 °F 41% 29.68 in 10.0 mi West 25.3 mph 39.1 mph N/A   Overcast
2:15 PM 57.2 °F - 35.6 °F 44% 29.68 in 10.0 mi West 21.9 mph 34.5 mph N/A   Mostly Cloudy
2:35 PM 57.2 °F - 33.8 °F 41% 29.69 in 10.0 mi West 26.5 mph 40.3 mph N/A   Mostly Cloudy
2:55 PM 57.2 °F - 33.8 °F 41% 29.69 in 10.0 mi West 21.9 mph 34.5 mph N/A   Mostly Cloudy
3:15 PM 57.2 °F - 33.8 °F 41% 29.70 in 10.0 mi West 20.7 mph 34.5 mph N/A   Scattered Clouds
3:35 PM 57.2 °F - 32.0 °F 38% 29.70 in 10.0 mi WNW 21.9 mph 32.2 mph N/A   Scattered Clouds
3:55 PM 59.0 °F - 32.0 °F 36% 29.71 in 10.0 mi West 26.5 mph 34.5 mph N/A   Scattered Clouds
4:15 PM 57.2 °F - 32.0 °F 38% 29.72 in 10.0 mi West 25.3 mph 34.5 mph N/A   Scattered Clouds
4:35 PM 59.0 °F - 33.8 °F 39% 29.72 in 10.0 mi West 20.7 mph 31.1 mph N/A   Scattered Clouds
4:55 PM 59.0 °F - 32.0 °F 36% 29.73 in 10.0 mi West 21.9 mph 32.2 mph N/A   Scattered Clouds
5:15 PM 59.0 °F - 32.0 °F 36% 29.73 in 10.0 mi West 18.4 mph 31.1 mph N/A   Scattered Clouds
5:35 PM 59.0 °F - 32.0 °F 36% 29.74 in 10.0 mi West 17.3 mph 29.9 mph N/A   Clear
5:55 PM 59.0 °F - 32.0 °F 36% 29.75 in 10.0 mi West 15.0 mph 28.8 mph N/A   Clear
6:15 PM 57.2 °F - 32.0 °F 38% 29.76 in 10.0 mi West 17.3 mph 29.9 mph N/A   Clear
6:35 PM 55.4 °F - 32.0 °F 41% 29.77 in 10.0 mi West 17.3 mph 23.0 mph N/A   Clear
6:55 PM 55.4 °F - 32.0 °F 41% 29.78 in 10.0 mi West 13.8 mph 21.9 mph N/A   Clear
7:15 PM 55.4 °F - 32.0 °F 41% 29.78 in 10.0 mi West 12.7 mph 19.6 mph N/A   Clear
7:35 PM 53.6 °F - 33.8 °F 47% 29.79 in 10.0 mi West 9.2 mph 17.3 mph N/A   Clear
8:15 PM 53.6 °F - 33.8 °F 47% 29.81 in 10.0 mi West 10.4 mph 16.1 mph N/A   Clear
8:35 PM 51.8 °F - 35.6 °F 54% 29.82 in 10.0 mi West 5.8 mph - N/A   Clear
8:55 PM 51.8 °F - 33.8 °F 50% 29.82 in 10.0 mi WSW 8.1 mph - N/A   Clear
9:15 PM 51.8 °F - 33.8 °F 50% 29.82 in 10.0 mi WSW 8.1 mph - N/A   Clear
9:35 PM 51.8 °F - 33.8 °F 50% 29.82 in 10.0 mi WSW 9.2 mph - N/A   Clear
9:55 PM 51.8 °F - 33.8 °F 50% 29.82 in 10.0 mi WSW 8.1 mph - N/A   Clear
10:15 PM 51.8 °F - 33.8 °F 50% 29.82 in 10.0 mi WSW 9.2 mph - N/A   Clear
10:55 PM 51.8 °F - 33.8 °F 50% 29.83 in 10.0 mi WSW 9.2 mph 17.3 mph N/A   Clear
11:15 PM 51.8 °F - 35.6 °F 54% 29.83 in 10.0 mi WSW 9.2 mph - N/A   Clear
11:35 PM 51.8 °F - 35.6 °F 54% 29.84 in 10.0 mi WSW 8.1 mph - N/A   Clear